Dayton Wright, OH

1:56 PM EDT on September 24, 2017 (GMT -0400)
Dayton-Wright Brothers

Weather History for KMGY - April, 2014

Change the Weather History Date:

Sunday, April 6, 2014

  Actual Average (KFFO) Record (KFFO)
Temperature  
Mean Temperature 44 °F -  
Max Temperature 57 °F 59 °F 78 °F (2005)
Min Temperature 32 °F 37 °F 20 °F (2007)
Degree Days  
Heating Degree Days 22    
Moisture  
Dew Point 30 °F    
Average Humidity 59    
Maximum Humidity 82    
Minimum Humidity 39    
Precipitation  
Precipitation 0.00 in - - ()
Sea Level Pressure  
Sea Level Pressure 30.09 in    
Wind  
Wind Speed 6 mph (East)    
Max Wind Speed 12 mph    
Max Gust Speed 18 mph    
Visibility 10 miles    
Events      
Averages and records for this station are not official NWS values.
T = Trace of Precipitation, MM = Missing Value Source: NWS Daily Summary

Daily Weather History Graph

Daily Weather History Graph

Search for Another Location

Airport or City:

Trip Planner

Search our weather history database for the weather conditions in past years. The results will help you decide how hot, cold, wet, or windy it might be!

Date:

Astronomy

Apr. 06, 2014 Rise Set
Actual Time 7:13 AM EDT 8:05 PM EDT
Civil Twilight 6:45 AM EDT 8:33 PM EDT
Nautical Twilight 6:13 AM EDT 9:05 PM EDT
Astronomical Twilight 5:39 AM EDT 9:39 PM EDT
Moon 12:14 PM EDT (4/6) 2:00 AM EDT (4/6)
Length of Visible Light 13h 47m
Length of Day
12h 52m
Waxing Crescent, 43% of the Moon is Illuminated
Apr 6
Waxing Crescent
Apr 7
First Quarter
Apr 15
Full
Apr 22
Last Quarter
Apr 29
New

Hourly Weather History & Observations

Time (EDT) Temp. Windchill Dew Point Humidity Pressure Visibility Wind Dir Wind Speed Gust Speed Precip Events Conditions
12:53 AM 37.0 °F 34.5 °F 28.9 °F 73% 30.19 in 10.0 mi NE 3.5 mph - N/A   Clear
1:53 AM 35.1 °F 31.0 °F 28.9 °F 78% 30.19 in 10.0 mi ENE 4.6 mph - N/A   Clear
2:53 AM 35.1 °F 30.1 °F 28.0 °F 76% 30.18 in 10.0 mi East 5.8 mph - N/A   Clear
3:53 AM 34.0 °F 28.8 °F 27.0 °F 75% 30.17 in 10.0 mi East 5.8 mph - N/A   Clear
4:53 AM 32.0 °F 26.4 °F 27.0 °F 82% 30.16 in 10.0 mi ENE 5.8 mph - N/A   Clear
5:53 AM 32.0 °F 26.4 °F 27.0 °F 82% 30.16 in 10.0 mi ENE 5.8 mph - N/A   Clear
6:53 AM 32.0 °F 26.4 °F 27.0 °F 82% 30.17 in 10.0 mi East 5.8 mph - N/A   Clear
7:53 AM 33.1 °F 28.7 °F 28.0 °F 82% 30.19 in 10.0 mi East 4.6 mph - N/A   Clear
8:53 AM 39.9 °F 36.7 °F 30.0 °F 68% 30.19 in 10.0 mi East 4.6 mph - N/A   Clear
9:53 AM 44.1 °F 39.5 °F 30.0 °F 58% 30.19 in 10.0 mi East 8.1 mph 18.4 mph N/A   Clear
10:53 AM 46.0 °F 40.6 °F 30.0 °F 54% 30.19 in 10.0 mi East 11.5 mph - N/A   Clear
11:53 AM 48.0 °F - 30.0 °F 50% 30.15 in 10.0 mi East 9.2 mph - N/A   Clear
12:53 PM 50.0 °F - 28.9 °F 44% 30.13 in 10.0 mi Variable 6.9 mph 17.3 mph N/A   Clear
1:53 PM 53.1 °F - 32.0 °F 45% 30.09 in 10.0 mi ENE 8.1 mph - N/A   Clear
2:53 PM 54.0 °F - 32.0 °F 43% 30.05 in 10.0 mi North - - N/A   Clear
3:53 PM 55.9 °F - 32.0 °F 40% 30.04 in 10.0 mi ESE 9.2 mph 16.1 mph N/A   Clear
4:53 PM 55.0 °F - 32.0 °F 42% 30.03 in 10.0 mi ENE 11.5 mph - N/A   Clear
5:53 PM 55.9 °F - 30.9 °F 39% 29.99 in 10.0 mi ESE 9.2 mph - N/A   Clear
6:53 PM 55.9 °F - 30.9 °F 39% 29.99 in 10.0 mi SE 10.4 mph - N/A   Clear
7:53 PM 54.0 °F - 32.0 °F 43% 29.99 in 10.0 mi ENE 4.6 mph - N/A   Clear
8:53 PM 50.0 °F - 33.1 °F 52% 29.96 in 10.0 mi ENE 5.8 mph - N/A   Clear
9:53 PM 50.0 °F - 33.1 °F 52% 29.96 in 10.0 mi ENE 5.8 mph - N/A   Clear
10:53 PM 48.9 °F - 33.1 °F 54% 29.95 in 10.0 mi ENE 5.8 mph - N/A   Clear
11:53 PM 48.9 °F - 32.0 °F 52% 29.94 in 10.0 mi ENE 6.9 mph - N/A   Clear